This demonstration page uses our WeatherBlox Daily Observations layout. Learn more.

Left ArrowRight Arrow

38.89511, -77.03637

Hourly Observations for February 27, 2017

Temp ( °F °C ) Dew Point ( °F °C ) Humidity (%) Winds ( mph kmh ) Pressure ( in mb ) Visibility ( mi km ) Precip ( " mm )
12:52 am 00:52 Mostly Clear 39 3.9 26 -3.3 60 60 SSE 8 13 30.33 1027 10 16 0.00 0.00
1:52 am 01:52 Mostly Clear 40 4.4 29 -1.7 65 65 SSE 8 13 30.33 1027 10 16 0.00 0.00
2:52 am 02:52 Mostly Clear 39 3.9 27 -2.8 62 62 WSW 3 6 30.35 1028 10 16 0.00 0.00
3:52 am 03:52 Clear 39 3.9 28 -2.2 65 65 Calm 30.36 1028 10 16 0.00 0.00
4:52 am 04:52 Clear 38 3.3 28 -2.2 68 68 Calm 30.37 1028 10 16 0.00 0.00
5:52 am 05:52 Mostly Cloudy 37 2.8 32 0 82 82 VRB 3 6 30.37 1029 10 16 0.00 0.00
6:52 am 06:52 Mostly Cloudy 39 3.9 34 1.1 82 82 SW 5 7 30.41 1030 10 16 0.00 0.00
7:52 am 07:52 Cloudy 40 4.4 35 1.7 83 83 SW 5 7 30.43 1030 10 16 0.00 0.00
8:52 am 08:52 Cloudy 42 5.6 34 1.1 73 73 SSW 7 11 30.44 1031 10 16 0.00 0.00
9:52 am 09:52 Cloudy 46 7.8 36 2.2 68 68 SSE 6 9 30.44 1031 10 16 0.00 0.00
10:52 am 10:52 Cloudy 48 8.9 33 0.6 56 56 S 9 15 30.45 1031 10 16 0.00 0.00
11:52 am 11:52 Cloudy 53 11.7 23 -5 31 31 S 13 20 30.43 1030 10 16 0.00 0.00
12:52 pm 12:52 Cloudy 52 11.1 23 -5 32 32 SSW 12 19 30.40 1030 10 16 0.00 0.00
1:52 pm 13:52 Cloudy 53 11.7 28 -2.2 38 38 SSW 12 19 30.37 1029 10 16 0.00 0.00
2:52 pm 14:52 Cloudy 54 12.2 25 -3.9 33 33 S 6 9 30.39 1029 10 16 0.00 0.00
3:52 pm 15:52 Cloudy 55 12.8 28 -2.2 35 35 SSW 3 6 30.40 1030 10 16 0.00 0.00
4:52 pm 16:52 Cloudy 54 12.2 33 0.6 45 45 S 8 13 30.40 1030 10 16 0.00 0.00
5:52 pm 17:52 Cloudy 54 12.2 29 -1.7 38 38 SSE 7 11 30.39 1029 10 16 0.00 0.00
6:52 pm 18:52 Mostly Cloudy 53 11.7 33 0.6 47 47 SSE 8 13 30.39 1029 10 16 0.00 0.00
7:52 pm 19:52 Cloudy 51 10.6 36 2.2 56 56 S 7 11 30.38 1029 10 16 0.00 0.00
8:52 pm 20:52 Mostly Cloudy 51 10.6 37 2.8 59 59 S 9 15 30.39 1029 10 16 0.00 0.00
9:52 pm 21:52 Cloudy 52 11.1 36 2.2 55 55 S 6 9 30.39 1029 10 16 0.00 0.00
10:52 pm 22:52 Mostly Cloudy 50 10 35 1.7 57 57 S 6 9 30.38 1029 10 16 0.00 0.00
11:52 pm 23:52 Partly Cloudy 49 9.4 34 1.1 56 56 SW 3 6 30.37 1029 10 16 0.00 0.00

Powered by AerisWeather